Flag for Cuba Weather past 2 weeks in Santiago de Cuba, Cuba

Now
70 °F

Light rain. Partly cloudy.


Feels Like: 70 °F
Forecast: 72 / 86 °F
Wind: 7 mph from North

Location: Santiago De Cuba - Oriente

Current Time: Apr 1, 2015 at 9:50:39 PM

Latest Report: Apr 1, 2015 at 8:53 PM


Visibility: 4 mi

Pressure: 30.07 "Hg

Humidity: 94%

Dew point: 68 °F

Location of Santiago de CubaLocation

Historic Weather in Santiago de Cuba — Graph

°F

Santiago de Cuba temperature yesterday

Maximum temperature yesterday: 84 °F (at 12:52 PM)
Minimum temperature yesterday: 72 °F (at 12:50 AM)
Average temperature yesterday: 75 °F

Past Weeks' High & Low Weather Summary

 TemperatureHumidityPressure
High91 °F (Mar 29, 12:52 PM)89% (Mar 28, 6:56 AM)30.12 "Hg (Mar 28, 6:56 AM)
Low70 °F (Mar 18, 3:59 AM)30% (Mar 29, 3:51 PM)29.92 "Hg (Mar 18, 4:51 PM)
Average78 °F67%30.04 "Hg
* Reported Mar 17 7:50 PM — Apr 1 7:53 PM, Santiago de Cuba, Weather by CustomWeather, © 2015

Note: Actual official high and low records may vary slightly from our data, if they occured in-between our weather recording intervals... More about our weather records

Advertising

Santiago de Cuba weather history for previous 24 hours

 ConditionsComfort  
Time TempWeatherWind HumidityBarometerVisibility
7:53 PM
Wed, Apr 1
72 °FRain. Broken clouds.14 mph88%30.04 "Hg2 mi
6:52 PM73 °FScattered showers. Broken clouds.10 mph83%N/A3 mi
5:52 PM79 °FScattered showers. Scattered clouds.14 mph70%29.98 "Hg6 mi
4:53 PM81 °FScattered clouds.14 mph62%29.98 "HgN/A
3:53 PM82 °FScattered clouds.14 mph62%29.98 "HgN/A
2:51 PM84 °FScattered clouds.14 mph55%30.01 "HgN/A
1:51 PM84 °FScattered clouds.13 mph55%30.04 "HgN/A
12:51 PM84 °FScattered clouds.10 mph51%30.07 "HgN/A
11:53 AM82 °FScattered clouds.8 mph48%30.07 "HgN/A
10:51 AM84 °FPassing clouds.5 mph48%30.07 "HgN/A
9:52 AM82 °FPassing clouds.9 mph55%30.07 "HgN/A
8:51 AM77 °FPassing clouds.8 mph65%30.07 "HgN/A
7:50 AM72 °FPassing clouds.10 mph73%30.04 "HgN/A
6:50 AM70 °FPassing clouds.10 mph78%30.01 "Hg6 mi
5:50 AM70 °FPassing clouds.9 mph78%30.01 "Hg6 mi
4:51 AM70 °FPassing clouds.10 mph78%30.01 "Hg6 mi
3:50 AM70 °FPassing clouds.10 mph78%30.01 "Hg6 mi
2:51 AM72 °FPassing clouds.9 mph69%30.01 "Hg6 mi
1:50 AM72 °FPassing clouds.7 mph69%30.04 "Hg6 mi
12:50 AM72 °FPassing clouds.9 mph69%30.04 "Hg6 mi
11:50 PM
Tue, Mar 31
73 °FPassing clouds.8 mph65%30.07 "Hg6 mi
10:50 PM73 °FPassing clouds.7 mph65%30.07 "Hg6 mi
9:50 PM75 °FPassing clouds.8 mph57%30.07 "Hg6 mi
Weather by CustomWeather, © 2015

See weather overviewHow to use our weather pages